Radiation Dose at Monitoring Post of Fukushima Daini Nuclear Power Station
Date,Time,MP-1(microSv/h),MP-2(microSv/h),MP-3(microSv/h),MP-4(microSv/h),MP-5(microSv/h),MP-6(microSv/h),MP-7(microSv/h),Wind Direction,Wind Velocity(m/s),Rain
2017/12/14,00:00,0.340,0.206,0.348,0.330,0.313,0.172,0.101,west-northwest,3.7,No
2017/12/14,00:10,0.341,0.206,0.349,0.328,0.312,0.173,0.102,west-northwest,5.1,No
2017/12/14,00:20,0.338,0.205,0.351,0.330,0.312,0.172,0.103,north-northwest,4.4,No
2017/12/14,00:30,0.338,0.206,0.350,0.329,0.313,0.172,0.102,north-northwest,2.9,No
2017/12/14,00:40,0.339,0.207,0.351,0.329,0.312,0.172,0.102,north,1.9,No
2017/12/14,00:50,0.338,0.206,0.350,0.329,0.312,0.173,0.103,west-northwest,1.6,No
2017/12/14,01:00,0.339,0.207,0.349,0.329,0.311,0.172,0.102,north-northwest,1.0,No
2017/12/14,01:10,0.338,0.206,0.348,0.329,0.311,0.172,0.102,north-northeast,2.0,No
2017/12/14,01:20,0.338,0.206,0.350,0.328,0.312,0.172,0.103,north-northwest,1.6,No
2017/12/14,01:30,0.338,0.206,0.349,0.329,0.313,0.172,0.102,north-northwest,1.9,No
2017/12/14,01:40,0.338,0.206,0.350,0.330,0.313,0.172,0.102,north-northwest,0.9,No
2017/12/14,01:50,0.338,0.206,0.348,0.329,0.313,0.173,0.102,north-northeast,1.3,No
2017/12/14,02:00,0.339,0.205,0.349,0.328,0.312,0.172,0.103,northeast,1.8,No
2017/12/14,02:10,0.338,0.206,0.350,0.330,0.311,0.172,0.102,-,CALM,No
2017/12/14,02:20,0.338,0.207,0.349,0.328,0.311,0.171,0.101,northeast,0.8,No
2017/12/14,02:30,0.339,0.206,0.350,0.329,0.311,0.172,0.102,north-northeast,1.3,No
2017/12/14,02:40,0.338,0.208,0.349,0.329,0.311,0.172,0.103,northeast,2.2,No
2017/12/14,02:50,0.338,0.206,0.349,0.329,0.309,0.172,0.102,northeast,2.7,No
2017/12/14,03:00,0.337,0.206,0.349,0.329,0.312,0.172,0.102,north,1.3,No
2017/12/14,03:10,0.338,0.206,0.350,0.328,0.311,0.172,0.103,west-northwest,0.8,No
2017/12/14,03:20,0.338,0.205,0.349,0.328,0.312,0.171,0.103,west,1.1,No
2017/12/14,03:30,0.338,0.206,0.350,0.330,0.312,0.172,0.102,-,CALM,No
2017/12/14,03:40,0.338,0.206,0.350,0.330,0.311,0.171,0.101,-,CALM,No
2017/12/14,03:50,0.339,0.206,0.349,0.329,0.311,0.170,0.102,-,CALM,No
2017/12/14,04:00,0.338,0.207,0.348,0.330,0.311,0.172,0.103,southwest,1.4,No
2017/12/14,04:10,0.340,0.206,0.349,0.329,0.311,0.173,0.102,south,1.5,No
2017/12/14,04:20,0.338,0.206,0.350,0.330,0.312,0.171,0.102,south-southwest,2.5,No
2017/12/14,04:30,0.338,0.205,0.349,0.330,0.312,0.173,0.102,south-southwest,1.9,No
2017/12/14,04:40,0.337,0.205,0.351,0.329,0.313,0.173,0.103,-,CALM,No
2017/12/14,04:50,0.338,0.206,0.350,0.331,0.311,0.172,0.102,southwest,1.4,No
2017/12/14,05:00,0.337,0.206,0.350,0.330,0.311,0.172,0.102,west-northwest,2.3,No
2017/12/14,05:10,0.340,0.205,0.349,0.329,0.310,0.173,0.102,west-northwest,2.9,No
2017/12/14,05:20,0.338,0.205,0.349,0.329,0.312,0.170,0.102,northwest,1.0,No
2017/12/14,05:30,0.339,0.206,0.350,0.330,0.313,0.172,0.102,-,CALM,No
2017/12/14,05:40,0.339,0.206,0.349,0.330,0.313,0.172,0.103,north-northwest,1.8,No
2017/12/14,05:50,0.338,0.206,0.352,0.330,0.312,0.172,0.103,northwest,2.8,No
2017/12/14,06:00,0.338,0.207,0.350,0.329,0.312,0.171,0.101,north-northwest,3.4,No
2017/12/14,06:10,0.340,0.206,0.350,0.330,0.313,0.172,0.102,north,4.8,No
2017/12/14,06:20,0.338,0.206,0.351,0.329,0.312,0.172,0.104,north-northeast,5.0,No
2017/12/14,06:30,0.338,0.206,0.350,0.331,0.312,0.172,0.102,north-northeast,4.0,No
2017/12/14,06:40,0.338,0.205,0.349,0.329,0.312,0.171,0.104,north,5.3,No
2017/12/14,06:50,0.340,0.205,0.349,0.329,0.311,0.172,0.103,north,7.3,No
2017/12/14,07:00,0.339,0.206,0.349,0.330,0.312,0.173,0.103,north-northeast,7.9,No
2017/12/14,07:10,0.339,0.206,0.349,0.329,0.312,0.172,0.102,north-northeast,6.2,No
2017/12/14,07:20,0.339,0.205,0.349,0.327,0.312,0.171,0.103,north,4.0,No
2017/12/14,07:30,0.338,0.206,0.350,0.330,0.312,0.172,0.103,north,5.2,No
2017/12/14,07:40,0.338,0.205,0.350,0.329,0.310,0.172,0.103,north,4.3,No
2017/12/14,07:50,0.338,0.205,0.349,0.329,0.312,0.172,0.103,north,4.8,No
2017/12/14,08:00,0.338,0.205,0.350,0.331,0.312,0.172,0.103,north,4.8,No
2017/12/14,08:10,0.340,0.206,0.350,0.328,0.312,0.172,0.102,north,6.5,No
2017/12/14,08:20,0.340,0.205,0.349,0.328,0.311,0.172,0.103,north,5.6,No
2017/12/14,08:30,0.338,0.205,0.349,0.328,0.310,0.171,0.102,north,3.8,No
2017/12/14,08:40,0.338,0.206,0.350,0.327,0.311,0.172,0.102,north,1.8,No
2017/12/14,08:50,0.338,0.206,0.350,0.328,0.311,0.172,0.103,north,3.5,No
2017/12/14,09:00,0.339,0.205,0.350,0.327,0.312,0.171,0.102,north,2.1,No
2017/12/14,09:10,0.338,0.205,0.349,0.328,0.312,0.171,0.103,north-northeast,1.6,No
2017/12/14,09:20,0.339,0.205,0.349,0.328,0.310,0.172,0.101,north,2.2,No
2017/12/14,09:30,0.338,0.206,0.349,0.330,0.311,0.171,0.102,northwest,1.1,No
2017/12/14,09:40,0.338,0.205,0.349,0.327,0.312,0.172,0.102,north-northwest,4.4,No
2017/12/14,09:50,0.337,0.204,0.349,0.328,0.312,0.172,0.102,north-northwest,5.3,No
2017/12/14,10:00,0.338,0.206,0.348,0.329,0.310,0.172,0.103,north,6.7,No
2017/12/14,10:10,0.337,0.206,-,0.329,0.312,0.173,0.102,north-northwest,7.6,No
2017/12/14,10:20,0.338,0.205,-,0.329,0.311,0.172,0.103,north-northwest,7.3,No
2017/12/14,10:30,0.336,0.205,-,0.329,0.313,0.173,0.102,north-northwest,5.6,No
2017/12/14,10:40,0.338,0.206,-,0.328,0.311,0.172,0.102,northwest,5.1,No
2017/12/14,10:50,0.338,0.205,-,0.329,0.311,0.172,0.103,northwest,7.0,No
2017/12/14,11:00,0.337,0.205,-,0.329,0.313,0.172,0.103,north-northwest,6.7,No
2017/12/14,11:10,0.338,0.207,-,0.328,0.311,0.173,0.102,north-northwest,5.4,No
2017/12/14,11:20,0.338,0.205,-,0.330,0.313,0.173,0.103,north-northwest,6.8,No
2017/12/14,11:30,0.336,0.205,-,0.327,0.312,0.173,0.102,north-northwest,7.3,No
2017/12/14,11:40,0.340,0.205,-,0.328,0.313,0.173,0.102,north-northwest,5.5,No
2017/12/14,11:50,0.337,0.205,-,0.329,0.313,0.173,0.103,north-northwest,6.2,No
2017/12/14,12:00,0.337,0.206,-,0.328,0.314,0.172,0.103,north-northwest,5.9,No
2017/12/14,12:10,0.339,0.206,-,0.331,0.314,0.172,0.103,north-northwest,4.8,No
2017/12/14,12:20,0.335,0.205,-,0.328,0.314,0.172,0.102,northwest,5.9,No
2017/12/14,12:30,0.338,0.206,-,0.329,0.312,0.172,0.102,north-northwest,5.9,No
2017/12/14,12:40,0.338,0.206,-,0.328,0.315,0.173,0.103,northwest,5.2,No
2017/12/14,12:50,0.338,0.205,-,0.329,0.311,0.173,0.103,northwest,5.4,No
2017/12/14,13:00,0.340,0.205,-,0.329,0.313,0.173,0.103,northwest,4.1,No
2017/12/14,13:10,0.339,0.206,-,0.329,0.314,0.173,0.103,north-northwest,7.0,No
2017/12/14,13:20,0.338,0.206,-,0.328,0.315,0.172,0.104,north-northwest,6.0,No
2017/12/14,13:30,0.339,0.205,-,0.328,0.313,0.172,0.102,north-northwest,4.4,No
2017/12/14,13:40,0.338,0.206,-,0.330,0.315,0.172,0.102,northwest,3.8,No
2017/12/14,13:50,0.338,0.207,-,0.329,0.311,0.173,0.102,north-northwest,5.2,No
2017/12/14,14:00,0.339,0.207,-,0.330,0.313,0.171,0.102,north-northwest,7.0,No
2017/12/14,14:10,0.338,0.207,-,0.328,0.312,0.171,0.102,north-northwest,4.6,No
2017/12/14,14:20,0.338,0.206,-,0.330,0.313,0.172,0.103,northwest,4.2,No
2017/12/14,14:30,0.339,0.205,-,0.330,0.312,0.172,0.103,northwest,4.3,No
2017/12/14,14:40,0.340,0.206,-,0.329,0.313,0.172,0.102,northwest,3.7,No
2017/12/14,14:50,0.339,0.206,-,0.332,0.314,0.171,0.103,west-northwest,2.4,No
2017/12/14,15:00,0.339,0.205,-,0.329,0.314,0.171,0.103,north-northwest,2.6,No
2017/12/14,15:10,0.340,0.206,-,0.330,0.313,0.173,0.103,north-northwest,4.8,No
2017/12/14,15:20,0.339,0.207,0.343,0.330,0.314,0.173,0.103,northwest,3.8,No
2017/12/14,15:30,0.339,0.208,0.345,0.330,0.314,0.173,0.102,northwest,2.8,No
2017/12/14,15:40,0.339,0.207,0.345,0.330,0.313,0.173,0.103,west-northwest,6.2,No
2017/12/14,15:50,0.339,0.206,0.344,0.331,0.313,0.171,0.103,west-northwest,5.0,No
2017/12/14,16:00,0.337,0.206,0.344,0.331,0.314,0.172,0.103,west-northwest,7.1,No
2017/12/14,16:10,0.338,0.206,0.344,0.330,0.312,0.173,0.103,west-northwest,8.1,No
2017/12/14,16:20,0.340,0.207,0.345,0.330,0.313,0.174,0.103,northwest,7.0,No
2017/12/14,16:30,0.338,0.207,0.344,0.331,0.314,0.172,0.102,northwest,6.0,No
2017/12/14,16:40,0.338,0.206,0.344,0.331,0.313,0.172,0.102,northwest,6.2,No
2017/12/14,16:50,0.339,0.207,0.344,0.330,0.313,0.173,0.103,northwest,5.7,No
2017/12/14,17:00,0.339,0.206,0.346,0.332,0.313,0.172,0.103,north-northwest,4.4,No
2017/12/14,17:10,0.341,0.206,0.345,0.332,0.312,0.173,0.102,northwest,5.5,No
2017/12/14,17:20,0.340,0.206,0.343,0.331,0.314,0.173,0.103,northwest,5.6,No
2017/12/14,17:30,0.339,0.206,0.345,0.330,0.313,0.173,0.103,northwest,6.0,No
2017/12/14,17:40,0.340,0.206,0.344,0.330,0.312,0.172,0.103,north-northwest,6.6,No
2017/12/14,17:50,0.339,0.206,0.345,0.330,0.313,0.172,0.103,northwest,5.6,No
2017/12/14,18:00,0.340,0.207,0.343,0.331,0.312,0.173,0.103,northwest,3.7,No
2017/12/14,18:10,0.340,0.207,0.343,0.330,0.313,0.172,0.103,west-northwest,1.7,No
2017/12/14,18:20,0.339,0.206,0.345,0.330,0.312,0.172,0.103,west-northwest,2.1,No
2017/12/14,18:30,0.338,0.206,0.345,0.331,0.313,0.172,0.103,west-northwest,2.2,No
2017/12/14,18:40,0.340,0.208,0.346,0.330,0.313,0.172,0.103,northwest,2.7,No
2017/12/14,18:50,0.340,0.206,0.345,0.330,0.313,0.171,0.102,north-northwest,2.3,No
2017/12/14,19:00,0.340,0.206,0.344,0.331,0.311,0.172,0.103,northwest,1.9,No
2017/12/14,19:10,0.339,0.207,0.344,0.330,0.312,0.172,0.102,northwest,2.6,No
2017/12/14,19:20,0.339,0.206,0.344,0.331,0.313,0.172,0.102,northwest,3.5,No
2017/12/14,19:30,0.340,0.206,0.342,0.330,0.311,0.173,0.103,northwest,2.4,No
2017/12/14,19:40,0.340,0.206,0.344,0.331,0.312,0.172,0.103,north-northwest,2.0,No
2017/12/14,19:50,0.339,0.206,0.344,0.329,0.312,0.173,0.103,northeast,0.6,No
2017/12/14,20:00,0.338,0.206,0.343,0.330,0.313,0.173,0.102,east,0.9,No
2017/12/14,20:10,0.340,0.206,0.345,0.330,0.312,0.173,0.103,east,0.8,No
2017/12/14,20:20,0.340,0.206,0.345,0.330,0.312,0.173,0.103,-,CALM,No
2017/12/14,20:30,0.340,0.206,0.345,0.330,0.312,0.173,0.103,-,CALM,No
2017/12/14,20:40,0.340,0.206,0.344,0.332,0.312,0.172,0.103,northwest,2.0,No
2017/12/14,20:50,0.338,0.206,0.344,0.332,0.313,0.172,0.103,north,1.7,No
2017/12/14,21:00,0.339,0.205,0.344,0.330,0.313,0.173,0.103,north,1.5,No
2017/12/14,21:10,0.338,0.205,0.346,0.331,0.311,0.172,0.103,north-northwest,2.4,No
2017/12/14,21:20,0.339,0.206,0.344,0.330,0.312,0.172,0.102,north-northwest,2.5,No
2017/12/14,21:30,0.340,0.208,0.345,0.331,0.312,0.173,0.103,north-northwest,2.6,No
2017/12/14,21:40,0.337,0.207,0.345,0.331,0.312,0.172,0.103,north-northwest,2.6,No
2017/12/14,21:50,0.339,0.206,0.344,0.332,0.313,0.172,0.102,north,2.4,No
2017/12/14,22:00,0.338,0.207,0.345,0.330,0.311,0.173,0.103,-,CALM,No
2017/12/14,22:10,0.338,0.206,0.345,0.331,0.311,0.172,0.103,south-southwest,1.2,No
2017/12/14,22:20,0.340,0.206,0.343,0.331,0.313,0.172,0.103,-,CALM,No
2017/12/14,22:30,0.340,0.207,0.344,0.331,0.312,0.172,0.103,northeast,0.9,No
2017/12/14,22:40,0.338,0.207,0.345,0.331,0.310,0.172,0.103,north-northeast,0.7,No
2017/12/14,22:50,0.339,0.206,0.345,0.329,0.311,0.173,0.103,north,1.8,No
2017/12/14,23:00,0.338,0.206,0.345,0.330,0.311,0.172,0.103,north-northwest,1.9,No
2017/12/14,23:10,0.338,0.207,0.345,0.331,0.312,0.172,0.103,northwest,2.2,No
2017/12/14,23:20,0.339,0.206,0.344,0.331,0.311,0.172,0.103,north-northwest,2.7,No
2017/12/14,23:30,0.338,0.207,0.344,0.331,0.312,0.172,0.102,northwest,2.0,No
2017/12/14,23:40,0.338,0.205,0.344,0.330,0.311,0.173,0.103,northwest,2.8,No
2017/12/14,23:50,0.339,0.207,0.345,0.330,0.312,0.172,0.103,northwest,1.5,No
